sat.trackr.live / text

‹ back to catalog

YAOGAN-39 04A

NORAD 58141 · 2023-163A

PAYLOAD ACTIVE UNKNOWN

§ Identity

Operator
Country
PRC
Launch date
2023-10-23
Launch site
XICLF
Launch vehicle
Mass (kg)
RCS (m²)

External: N2YO · Heavens-Above · Gunter

§ Orbital elements

Epoch: 2026-09-21T22:08:59.543232Z

Period
94.56 min
Inclination
35.0006°
Eccentricity
0.0004390
Mean motion
15.22797859 rev/d
Perigee alt
494.4 km
Apogee alt
500.4 km
Semi-major
6,875.5 km
B*
2.4288e-4
RAAN
96.3817°
Arg perigee
168.4740°
Mean anomaly
191.6076°
Rev number
16,233

§ Raw data

YAOGAN-39 04A1 58141U 23163A   26264.92291138  .00005785  00000+0  24288-3 0  99902 58141  35.0006  96.3817 0004390 168.4740 191.6076 15.22797859162335

JSON: /api/v1/satellites/58141 · /tle

For live sub-satellite position, see the globe view (requires WebGL).

§ Visibility from observer

Set your observer location to see the next 7 days of passes ≥ 10°. The values pass through the URL so the page stays shareable.

No JS? Fill the form by hand. The geolocation button needs JavaScript.